Weather History for Anaktuvuk Pass, AK

Change the Weather History Date:

Thursday, March 6, 2014

  Actual Average Record
Temperature  
Mean Temperature -18 °F -  
Max Temperature -14 °F 0 °F 21 °F (2003)
Min Temperature -23 °F -12 °F -32 °F (2004)
Degree Days  
Heating Degree Days 84    
Moisture  
Dew Point -28 °F    
Average Humidity 58    
Maximum Humidity 63    
Minimum Humidity 53    
Precipitation  
Precipitation 0.00 in - - ()
Sea Level Pressure  
Sea Level Pressure 30.09 in    
Wind  
Wind Speed 9 mph (NNE)    
Max Wind Speed 15 mph    
Max Gust Speed 18 mph    
Visibility 10 miles    
Events      
Averages and records for this station are not official NWS values.
T = Trace of Precipitation, MM = Missing Value Source: NWS Daily Summary

Daily Weather History Graph

Daily Weather History Graph

Search for Another Location

Airport:

Trip Planner

Search our weather history database for the weather conditions in past years. The results will help you decide how hot, cold, wet, or windy it might be!

Date:

Astronomy

Mar. 06, 2014 Rise Set
Actual Time 8:04 AM AKST 6:33 PM AKST
Civil Twilight 7:08 AM AKST 7:29 PM AKST
Nautical Twilight 6:03 AM AKST 8:35 PM AKST
Astronomical Twilight 4:53 AM AKST 9:46 PM AKST
Moon 8:26 AM AKST (3/6) 2:38 AM AKST (3/6)
Length of Visible Light 12h 20m
Length of Day
10h 28m
Waxing Crescent, 34% of the Moon is Illuminated
Mar 6
Waxing Crescent
Mar 8
First Quarter
Mar 16
Full
Mar 23
Last Quarter
Mar 30
New

Hourly Weather History & Observations

Time (AKST) Temp. Windchill Dew Point Humidity Pressure Visibility Wind Dir Wind Speed Gust Speed Precip Events Conditions
12:16 AM -20.2 °F -40.1 °F - N/A% 30.12 in 10.0 mi NNE 9.2 mph - N/A   Clear
12:36 AM -22.0 °F -41.0 °F - N/A% 30.13 in 10.0 mi ENE 8.1 mph - N/A   Clear
12:56 AM -22.0 °F -41.0 °F - N/A% 30.12 in 10.0 mi North 8.1 mph - N/A   Clear
1:16 AM -22.0 °F -39.4 °F - N/A% 30.13 in 10.0 mi NNE 6.9 mph - N/A   Clear
1:36 AM -20.2 °F -42.4 °F - N/A% 30.12 in 10.0 mi NNE 11.5 mph - N/A   Clear
1:56 AM -20.2 °F -38.8 °F - N/A% 30.13 in 10.0 mi NE 8.1 mph - N/A   Clear
2:16 AM -20.2 °F -41.3 °F - N/A% 30.13 in 10.0 mi NE 10.4 mph - N/A   Clear
2:36 AM -20.2 °F -41.3 °F - N/A% 30.13 in 10.0 mi NNE 10.4 mph - N/A   Clear
2:56 AM -20.2 °F -41.3 °F - N/A% 30.13 in 10.0 mi NNE 10.4 mph - N/A   Clear
3:16 AM -20.2 °F -41.3 °F - N/A% 30.13 in 10.0 mi NNE 10.4 mph - N/A   Clear
3:36 AM -20.2 °F -41.3 °F - N/A% 30.13 in 10.0 mi NNE 10.4 mph - N/A   Clear
3:56 AM -22.0 °F -43.6 °F - N/A% 30.13 in 10.0 mi NNE 10.4 mph - N/A   Clear
4:16 AM -22.0 °F -43.6 °F - N/A% 30.13 in 10.0 mi NNE 10.4 mph - N/A   Clear
4:36 AM -20.2 °F -43.4 °F - N/A% 30.13 in 10.0 mi NE 12.7 mph - N/A   Clear
4:56 AM -18.4 °F -42.1 °F -29.2 °F 58% 30.13 in 10.0 mi NE 13.8 mph - N/A   Clear
5:16 AM -18.4 °F -42.9 °F -29.2 °F 58% 30.12 in 10.0 mi NE 15.0 mph - N/A   Clear
5:36 AM -18.4 °F -42.1 °F -29.2 °F 58% 30.13 in 10.0 mi NE 13.8 mph 18.4 mph N/A   Clear
5:56 AM -18.4 °F -40.2 °F -29.2 °F 58% 30.13 in 10.0 mi NE 11.5 mph - N/A   Clear
6:16 AM -20.2 °F -38.8 °F - N/A% 30.13 in 10.0 mi North 8.1 mph - N/A   Clear
6:36 AM -20.2 °F -41.3 °F - N/A% 30.12 in 10.0 mi NNE 10.4 mph - N/A   Clear
6:56 AM -20.2 °F -41.3 °F - N/A% 30.13 in 10.0 mi NNE 10.4 mph - N/A   Clear
7:16 AM -20.2 °F -43.4 °F - N/A% 30.13 in 10.0 mi NNE 12.7 mph - N/A   Clear
7:36 AM -23.8 °F -44.5 °F - N/A% 30.13 in 10.0 mi NNE 9.2 mph - N/A   Clear
7:56 AM -23.8 °F -44.5 °F - N/A% 30.13 in 9.0 mi NNE 9.2 mph - N/A   Clear
8:16 AM -20.2 °F -41.3 °F - N/A% 30.13 in 9.0 mi NNE 10.4 mph - N/A   Clear
8:36 AM -20.2 °F -42.4 °F - N/A% 30.13 in 9.0 mi NNE 11.5 mph - N/A   Clear
8:56 AM -20.2 °F -37.3 °F - N/A% 30.13 in 9.0 mi North 6.9 mph - N/A   Clear
9:16 AM -20.2 °F -40.1 °F - N/A% 30.13 in 9.0 mi North 9.2 mph - N/A   Clear
9:36 AM -20.2 °F -40.1 °F - N/A% 30.13 in 8.0 mi North 9.2 mph - N/A   Clear
9:56 AM -20.2 °F -40.1 °F - N/A% 30.13 in 7.0 mi North 9.2 mph - N/A   Clear
10:16 AM -18.4 °F -37.9 °F -29.2 °F 58% 30.13 in 8.0 mi NNE 9.2 mph - N/A   Clear
10:36 AM -18.4 °F -37.9 °F -29.2 °F 58% 30.13 in 7.0 mi NNE 9.2 mph - N/A   Clear
10:56 AM -20.2 °F -40.1 °F - N/A% 30.13 in 8.0 mi NNE 9.2 mph - N/A   Clear
11:16 AM -18.4 °F -41.2 °F -29.2 °F 58% 30.12 in 10.0 mi NNE 12.7 mph - N/A   Clear
11:36 AM -18.4 °F -37.9 °F -27.4 °F 63% 30.12 in 10.0 mi NNE 9.2 mph - N/A   Clear
11:56 AM -18.4 °F -40.2 °F -29.2 °F 58% 30.12 in 10.0 mi NNE 11.5 mph - N/A   Clear
12:16 PM -16.6 °F -37.9 °F -27.4 °F 58% 30.12 in 10.0 mi NNE 11.5 mph - N/A   Clear
12:36 PM -16.6 °F -39.8 °F -27.4 °F 58% 30.12 in 10.0 mi NNE 13.8 mph - N/A   Clear
12:56 PM -16.6 °F -39.8 °F -27.4 °F 58% 30.11 in 10.0 mi NNE 13.8 mph - N/A   Clear
1:16 PM -16.6 °F -38.9 °F -27.4 °F 58% 30.11 in 10.0 mi NNE 12.7 mph - N/A   Clear
1:36 PM -16.6 °F -38.9 °F -27.4 °F 58% 30.11 in 10.0 mi North 12.7 mph - N/A   Clear
1:56 PM -14.8 °F -35.6 °F -27.4 °F 53% 30.10 in 10.0 mi North 11.5 mph - N/A   Clear
2:16 PM -14.8 °F -35.6 °F -27.4 °F 53% 30.10 in 10.0 mi NNE 11.5 mph - N/A   Clear
2:36 PM -14.8 °F -36.6 °F -25.6 °F 58% 30.10 in 10.0 mi North 12.7 mph - N/A   Clear
2:56 PM -14.8 °F -35.6 °F -25.6 °F 58% 30.09 in 10.0 mi North 11.5 mph - N/A   Clear
3:16 PM -14.8 °F -34.6 °F -27.4 °F 53% 30.09 in 9.0 mi NNE 10.4 mph - N/A   Clear
3:36 PM -14.8 °F -36.6 °F -25.6 °F 58% 30.09 in 10.0 mi North 12.7 mph - N/A   Clear
3:56 PM -14.8 °F -35.6 °F -27.4 °F 53% 30.09 in 10.0 mi North 11.5 mph - N/A   Clear
4:16 PM -14.8 °F -33.5 °F -27.4 °F 53% 30.08 in 10.0 mi North 9.2 mph - N/A   Clear
4:36 PM -14.8 °F -33.5 °F -27.4 °F 53% 30.07 in 10.0 mi North 9.2 mph - N/A   Clear
4:56 PM -14.8 °F -34.6 °F -27.4 °F 53% 30.07 in 10.0 mi NNE 10.4 mph - N/A   Clear
5:16 PM -16.6 °F -34.4 °F -27.4 °F 58% 30.06 in 10.0 mi North 8.1 mph - N/A   Clear
5:36 PM -16.6 °F -32.9 °F -27.4 °F 58% 30.06 in 10.0 mi North 6.9 mph - N/A   Clear
5:56 PM -16.6 °F -32.9 °F -29.2 °F 53% 30.06 in 10.0 mi NNE 6.9 mph - N/A   Clear
6:16 PM -16.6 °F -32.9 °F -29.2 °F 53% 30.06 in 10.0 mi North 6.9 mph - N/A   Clear
6:36 PM -18.4 °F -36.6 °F -29.2 °F 58% 30.05 in 10.0 mi NNE 8.1 mph - N/A   Clear
6:56 PM -18.4 °F - -29.2 °F 58% 30.05 in 10.0 mi Calm Calm - N/A   Clear
7:16 PM -18.4 °F -31.4 °F -27.4 °F 63% 30.05 in 10.0 mi North 4.6 mph - N/A   Clear
7:36 PM -18.4 °F -37.9 °F -29.2 °F 58% 30.05 in 10.0 mi NNE 9.2 mph - N/A   Clear
7:56 PM -18.4 °F -37.9 °F -27.4 °F 63% 30.05 in 10.0 mi North 9.2 mph - N/A   Clear
8:16 PM -18.4 °F -33.4 °F -27.4 °F 63% 30.05 in 10.0 mi North 5.8 mph - N/A   Clear
8:36 PM -18.4 °F -31.4 °F -27.4 °F 63% 30.04 in 10.0 mi North 4.6 mph - N/A   Clear
8:56 PM -18.4 °F -31.4 °F -29.2 °F 58% 30.04 in 9.0 mi North 4.6 mph - N/A   Clear
9:16 PM -18.4 °F -31.4 °F -27.4 °F 63% 30.04 in 10.0 mi North 4.6 mph - N/A   Clear
9:36 PM -20.2 °F -35.5 °F - N/A% 30.03 in 10.0 mi NNE 5.8 mph - N/A   Clear
9:56 PM -20.2 °F -33.5 °F - N/A% 30.02 in 9.0 mi North 4.6 mph - N/A   Clear
10:16 PM -20.2 °F - -29.2 °F 63% 30.02 in 10.0 mi Calm Calm - N/A   Clear
10:36 PM -20.2 °F -33.5 °F - N/A% 30.01 in 10.0 mi North 4.6 mph - N/A   Clear
10:56 PM -18.4 °F -28.9 °F -29.2 °F 58% 30.00 in 10.0 mi North 3.5 mph - N/A   Clear
11:16 PM -18.4 °F - -29.2 °F 58% 30.00 in 10.0 mi Calm Calm - N/A   Clear
11:36 PM -18.4 °F -31.4 °F - N/A% 30.00 in 10.0 mi North 4.6 mph - N/A   Clear
11:56 PM -16.6 °F -31.3 °F -27.4 °F 58% 30.00 in 10.0 mi North 5.8 mph - N/A   Clear